Time,TemperatureF,DewpointF,PressureIn,WindDirection,WindDirectionDegrees,WindSpeedMPH,WindSpeedGustMPH,Humidity,HourlyPrecipIn,Conditions,Clouds,dailyrainin,SoftwareType,DateUTC
2013-01-06 14:20:00,30.0,22.0,30.14,West,274,3.0,11.0,73,0.00,,,0.00,,2013-01-06 20:20:00,
2013-01-06 15:12:00,30.0,22.0,30.14,West,274,3.0,11.0,73,0.00,,,0.00,,2013-01-06 21:12:00,
2013-01-06 15:33:00,29.0,22.0,30.16,West,276,2.0,8.0,74,0.00,,,0.00,,2013-01-06 21:33:00,
2013-01-06 15:43:00,29.0,22.0,30.16,West,276,2.0,8.0,74,0.00,,,0.00,,2013-01-06 21:43:00,
2013-01-06 15:53:00,28.0,21.0,30.17,West,273,3.0,8.0,74,0.00,,,0.00,,2013-01-06 21:53:00,
2013-01-06 16:02:00,28.0,21.0,30.18,WNW,283,1.0,8.0,74,0.00,,,0.00,,2013-01-06 22:02:00,
2013-01-06 16:12:00,28.0,21.0,30.18,WNW,283,1.0,8.0,74,0.00,,,0.00,,2013-01-06 22:12:00,
2013-01-06 16:22:00,28.0,21.0,30.18,WNW,283,1.0,8.0,74,0.00,,,0.00,,2013-01-06 22:22:00,
2013-01-06 16:33:00,27.0,20.0,30.19,North,0,0.0,5.0,74,0.00,,,0.00,,2013-01-06 22:33:00,
2013-01-06 16:43:00,27.0,20.0,30.19,North,0,0.0,5.0,74,0.00,,,0.00,,2013-01-06 22:43:00,
2013-01-06 16:52:00,26.0,19.0,30.20,West,259,3.0,7.0,74,0.00,,,0.00,,2013-01-06 22:52:00,
2013-01-06 17:02:00,25.0,18.0,30.21,North,0,0.0,5.0,75,0.00,,,0.00,,2013-01-06 23:02:00,
2013-01-06 17:12:00,25.0,18.0,30.21,North,0,0.0,5.0,75,0.00,,,0.00,,2013-01-06 23:12:00,
2013-01-06 17:22:00,24.0,17.0,30.21,North,0,0.0,7.0,75,0.00,,,0.00,,2013-01-06 23:22:00,
2013-01-06 17:33:00,24.0,17.0,30.22,North,0,0.0,6.0,75,0.00,,,0.00,,2013-01-06 23:33:00,
2013-01-06 17:42:00,24.0,17.0,30.22,North,0,0.0,6.0,75,0.00,,,0.00,,2013-01-06 23:42:00,
2013-01-06 17:53:00,23.0,16.0,30.22,North,0,0.0,1.0,75,0.00,,,0.00,,2013-01-06 23:53:00,
2013-01-06 18:02:00,23.0,17.0,30.23,North,0,0.0,0.0,76,0.00,,,0.00,,2013-01-07 00:02:00,
2013-01-06 18:12:00,23.0,17.0,30.23,North,0,0.0,0.0,76,0.00,,,0.00,,2013-01-07 00:12:00,
2013-01-06 18:23:00,22.0,16.0,30.24,North,0,0.0,2.0,76,0.00,,,0.00,,2013-01-07 00:23:00,
2013-01-06 18:32:00,22.0,16.0,30.24,North,0,0.0,0.0,76,0.00,,,0.00,,2013-01-07 00:32:00,
2013-01-06 18:42:00,22.0,16.0,30.24,North,0,0.0,0.0,76,0.00,,,0.00,,2013-01-07 00:42:00,
2013-01-06 18:53:00,22.0,16.0,30.24,North,0,0.0,0.0,76,0.00,,,0.00,,2013-01-07 00:53:00,
2013-01-06 19:02:00,22.0,16.0,30.25,North,0,0.0,0.0,76,0.00,,,0.00,,2013-01-07 01:02:00,
2013-01-06 19:12:00,22.0,16.0,30.25,North,0,0.0,0.0,76,0.00,,,0.00,,2013-01-07 01:12:00,
2013-01-06 19:22:00,21.0,15.0,30.25,North,0,0.0,0.0,76,0.00,,,0.00,,2013-01-07 01:22:00,
2013-01-06 19:32:00,20.0,14.0,30.24,North,0,0.0,0.0,76,0.00,,,0.00,,2013-01-07 01:32:00,
2013-01-06 19:42:00,20.0,14.0,30.24,North,0,0.0,0.0,76,0.00,,,0.00,,2013-01-07 01:42:00,
2013-01-06 19:53:00,20.0,14.0,30.24,North,0,0.0,0.0,76,0.00,,,0.00,,2013-01-07 01:53:00,
2013-01-06 20:02:00,20.0,13.0,30.24,North,0,0.0,0.0,75,0.00,,,0.00,,2013-01-07 02:02:00,
2013-01-06 20:12:00,20.0,13.0,30.24,North,0,0.0,0.0,75,0.00,,,0.00,,2013-01-07 02:12:00,
2013-01-06 20:22:00,19.0,12.0,30.23,North,0,0.0,0.0,75,0.00,,,0.00,,2013-01-07 02:22:00,
2013-01-06 20:32:00,19.0,12.0,30.23,North,0,0.0,0.0,75,0.00,,,0.00,,2013-01-07 02:32:00,
2013-01-06 20:42:00,19.0,12.0,30.23,North,0,0.0,0.0,75,0.00,,,0.00,,2013-01-07 02:42:00,
2013-01-06 20:53:00,18.0,11.0,30.26,North,0,0.0,0.0,75,0.00,,,0.00,,2013-01-07 02:53:00,
2013-01-06 21:02:00,18.0,11.0,30.26,North,0,0.0,0.0,75,0.00,,,0.00,,2013-01-07 03:02:00,
2013-01-06 21:12:00,18.0,11.0,30.26,North,0,0.0,0.0,75,0.00,,,0.00,,2013-01-07 03:12:00,
2013-01-06 21:22:00,18.0,11.0,30.26,North,0,0.0,0.0,75,0.00,,,0.00,,2013-01-07 03:22:00,
2013-01-06 21:32:00,18.0,11.0,30.26,North,0,0.0,0.0,75,0.00,,,0.00,,2013-01-07 03:32:00,
2013-01-06 21:42:00,18.0,11.0,30.26,North,0,0.0,0.0,75,0.00,,,0.00,,2013-01-07 03:42:00,
2013-01-06 21:53:00,17.0,10.0,30.25,North,0,0.0,0.0,75,0.00,,,0.00,,2013-01-07 03:53:00,
2013-01-06 22:02:00,17.0,10.0,30.25,North,0,0.0,0.0,75,0.00,,,0.00,,2013-01-07 04:02:00,
2013-01-06 22:12:00,17.0,10.0,30.25,North,0,0.0,0.0,75,0.00,,,0.00,,2013-01-07 04:12:00,
2013-01-06 22:22:00,17.0,10.0,30.26,North,0,0.0,0.0,75,0.00,,,0.00,,2013-01-07 04:22:00,
2013-01-06 22:32:00,17.0,10.0,30.26,North,0,0.0,1.0,75,0.00,,,0.00,,2013-01-07 04:32:00,
2013-01-06 22:42:00,17.0,10.0,30.26,North,0,0.0,1.0,75,0.00,,,0.00,,2013-01-07 04:42:00,
2013-01-06 22:52:00,17.0,10.0,30.26,North,0,0.0,0.0,75,0.00,,,0.00,,2013-01-07 04:52:00,
2013-01-06 23:02:00,17.0,10.0,30.26,North,0,0.0,0.0,75,0.00,,,0.00,,2013-01-07 05:02:00,
2013-01-06 23:12:00,17.0,10.0,30.26,North,0,0.0,0.0,75,0.00,,,0.00,,2013-01-07 05:12:00,
2013-01-06 23:22:00,16.0,9.0,30.26,North,0,0.0,1.0,75,0.00,,,0.00,,2013-01-07 05:22:00,
2013-01-06 23:33:00,16.0,9.0,30.26,North,0,0.0,1.0,75,0.00,,,0.00,,2013-01-07 05:33:00,
2013-01-06 23:43:00,16.0,9.0,30.26,North,0,0.0,1.0,75,0.00,,,0.00,,2013-01-07 05:43:00,
2013-01-06 23:53:00,15.0,9.0,30.27,North,0,0.0,1.0,75,0.00,,,0.00,,2013-01-07 05:53:00,